| time (UTC) | temp C | wind direction | speed KPH | gust KPH | rain 1hr cm | rain 24hr cm | rain mn cm | humidity % | barometer mb |
| 20260505184536 | 28 | 238 | 3.2 | 11.3 | 0.00 | 0.00 | 0.00 | 36 | 1005.2 |
| 20260505183031 | 28 | 16 | 3.2 | 12.9 | 0.00 | 0.00 | 0.00 | 36 | 1005.5 |
| 20260505181534 | 27 | 281 | 3.2 | 11.3 | 0.00 | 0.00 | 0.00 | 36 | 1005.8 |
| 20260505180038 | 27 | 286 | 1.6 | 14.5 | 0.00 | 0.00 | 0.00 | 37 | 1006.0 |
| 20260505174525 | 27 | 52 | 1.6 | 12.9 | 0.00 | 0.00 | 0.00 | 39 | 1006.1 |
| 20260505173025 | 27 | 248 | 1.6 | 16.1 | 0.00 | 0.00 | 0.00 | 41 | 1006.3 |
| 20260505171519 | 27 | 280 | 3.2 | 9.7 | 0.00 | 0.00 | 0.00 | 40 | 1006.5 |
| 20260505170020 | 26 | 23 | 1.6 | 8.0 | 0.00 | 0.00 | 0.00 | 44 | 1007.0 |
| 20260505164514 | 26 | 164 | 1.6 | 8.0 | 0.00 | 0.00 | 0.00 | 44 | 1007.1 |
| 20260505161515 | 26 | 269 | 0.0 | 11.3 | 0.00 | 0.00 | 0.00 | 43 | 1007.6 |
| 20260505124503 | 17 | 277 | 0.0 | 8.0 | 0.00 | 0.00 | 0.00 | 66 | 1009.0 |
| 20260505123103 | 16 | 249 | 1.6 | 8.0 | 0.00 | 0.00 | 0.00 | 67 | 1009.0 |
| 20260505121624 | 15 | 284 | 0.0 | 8.0 | 0.00 | 0.00 | 0.00 | 69 | 1009.1 |
| 20260505120053 | 15 | 303 | 0.0 | 4.8 | 0.00 | 0.00 | 0.00 | 72 | 1009.1 |
| 20260505114548 | 14 | 293 | 0.0 | 9.7 | 0.00 | 0.00 | 0.00 | 73 | 1009.2 |
| 20260505113048 | 13 | 284 | 0.0 | 1.6 | 0.00 | 0.00 | 0.00 | 75 | 1008.9 |
| 20260505111547 | 12 | 291 | 0.0 | 1.6 | 0.00 | 0.00 | 0.00 | 77 | 1008.9 |
| 20260505101540 | 11 | 273 | 0.0 | 0.0 | 0.00 | 0.00 | 0.00 | 80 | 1008.9 |
| 20260505100043 | 11 | 271 | 0.0 | 0.0 | 0.00 | 0.00 | 0.00 | 80 | 1008.9 |
| 20260505094533 | 11 | 271 | 0.0 | 0.0 | 0.00 | 0.00 | 0.00 | 79 | 1008.9 |
| 20260505093034 | 11 | 271 | 0.0 | 0.0 | 0.00 | 0.00 | 0.00 | 79 | 1009.0 |
| 20260505091536 | 11 | 205 | 0.0 | 1.6 | 0.00 | 0.00 | 0.00 | 79 | 1008.9 |
| 20260505090030 | 10 | 165 | 0.0 | 1.6 | 0.00 | 0.00 | 0.00 | 79 | 1008.9 |
| 20260505084528 | 10 | 165 | 0.0 | 0.0 | 0.00 | 0.00 | 0.00 | 79 | 1009.0 |
| 20260505083035 | 10 | 165 | 0.0 | 1.6 | 0.00 | 0.00 | 0.00 | 79 | 1009.1 |
| 20260505081529 | 10 | 165 | 0.0 | 1.6 | 0.00 | 0.00 | 0.00 | 78 | 1009.1 |
| 20260505080036 | 10 | 165 | 0.0 | 1.6 | 0.00 | 0.00 | 0.00 | 78 | 1009.0 |
| 20260505074523 | 10 | 165 | 0.0 | 1.6 | 0.00 | 0.00 | 0.00 | 77 | 1009.3 |
| 20260505073025 | 10 | 352 | 0.0 | 3.2 | 0.00 | 0.00 | 0.00 | 77 | 1009.3 |
| 20260505071532 | 10 | 341 | 0.0 | 3.2 | 0.00 | 0.00 | 0.00 | 78 | 1009.3 |
| 20260505070020 | 10 | 342 | 0.0 | 1.6 | 0.00 | 0.00 | 0.00 | 77 | 1009.5 |
| 20260505064518 | 10 | 339 | 0.0 | 3.2 | 0.00 | 0.00 | 0.00 | 77 | 1009.4 |
| 20260505063026 | 11 | 338 | 0.0 | 1.6 | 0.00 | 0.00 | 0.00 | 76 | 1009.5 |
| 20260505061515 | 11 | 338 | 0.0 | 1.6 | 0.00 | 0.00 | 0.00 | 74 | 1009.5 |
| 20260505060012 | 11 | 338 | 0.0 | 0.0 | 0.00 | 0.00 | 0.00 | 73 | 1009.6 |
| 20260505054511 | 11 | 338 | 0.0 | 0.0 | 0.00 | 0.00 | 0.00 | 73 | 1009.7 |
| 20260505053007 | 11 | 338 | 0.0 | 1.6 | 0.00 | 0.00 | 0.00 | 71 | 1009.8 |
| 20260505051506 | 11 | 338 | 0.0 | 1.6 | 0.00 | 0.00 | 0.00 | 70 | 1009.7 |
| 20260505041609 | 12 | 201 | 0.0 | 1.6 | 0.00 | 0.00 | 0.00 | 66 | 1009.7 |
| 20260505040054 | 12 | 154 | 0.0 | 1.6 | 0.00 | 0.00 | 0.00 | 65 | 1009.6 |
| 20260505034553 | 12 | 149 | 0.0 | 1.6 | 0.00 | 0.00 | 0.00 | 63 | 1009.5 |
| 20260505033152 | 13 | 89 | 0.0 | 1.6 | 0.00 | 0.00 | 0.00 | 61 | 1009.4 |
| 20260505031554 | 13 | 89 | 0.0 | 1.6 | 0.00 | 0.00 | 0.00 | 60 | 1009.5 |
| 20260505024556 | 14 | 1 | 0.0 | 1.6 | 0.00 | 0.00 | 0.00 | 58 | 1009.4 |
| 20260505023050 | 14 | 5 | 0.0 | 4.8 | 0.00 | 0.00 | 0.00 | 57 | 1009.4 |
| 20260505021555 | 15 | 261 | 0.0 | 3.2 | 0.00 | 0.00 | 0.00 | 56 | 1009.6 |
| 20260505014549 | 15 | 243 | 0.0 | 6.4 | 0.00 | 0.00 | 0.00 | 53 | 1009.3 |
| 20260505013049 | 15 | 270 | 0.0 | 4.8 | 0.00 | 0.00 | 0.00 | 52 | 1009.2 |
| 20260505011549 | 16 | 321 | 0.0 | 8.0 | 0.00 | 0.00 | 0.00 | 51 | 1008.9 |
| 20260505010105 | 16 | 314 | 0.0 | 6.4 | 0.00 | 0.00 | 0.00 | 50 | 1008.6 |
| 20260505004547 | 16 | 267 | 0.0 | 4.8 | 0.00 | 0.00 | 0.00 | 49 | 1008.4 |
| 20260505003050 | 17 | 61 | 0.0 | 3.2 | 0.00 | 0.00 | 0.00 | 47 | 1007.9 |
| 20260505001546 | 17 | 357 | 1.6 | 11.3 | 0.00 | 0.00 | 0.00 | 45 | 1007.5 |
| 20260505000053 | 18 | 264 | 0.0 | 6.4 | 0.00 | 0.00 | 0.00 | 41 | 1007.2 |
| 20260504234545 | 19 | 303 | 0.0 | 1.6 | 0.00 | 0.00 | 0.00 | 37 | 1006.8 |
| 20260504233051 | 20 | 312 | 1.6 | 9.7 | 0.00 | 0.00 | 0.00 | 34 | 1006.6 |
| 20260504231543 | 21 | 295 | 0.0 | 6.4 | 0.00 | 0.00 | 0.00 | 34 | 1006.4 |
| 20260504224557 | 21 | 284 | 1.6 | 11.3 | 0.00 | 0.00 | 0.00 | 32 | 1006.1 |
| 20260504223041 | 21 | 325 | 3.2 | 9.7 | 0.00 | 0.00 | 0.00 | 31 | 1006.0 |
| 20260504221539 | 22 | 286 | 4.8 | 12.9 | 0.00 | 0.00 | 0.00 | 31 | 1005.9 |
| 20260504220043 | 22 | 303 | 3.2 | 16.1 | 0.00 | 0.00 | 0.00 | 31 | 1005.9 |
| 20260504214543 | 21 | 289 | 3.2 | 6.4 | 0.00 | 0.00 | 0.00 | 33 | 1006.0 |
| 20260504213036 | 22 | 275 | 3.2 | 9.7 | 0.00 | 0.00 | 0.00 | 31 | 1005.9 |
| 20260504211537 | 22 | 306 | 3.2 | 12.9 | 0.00 | 0.00 | 0.00 | 30 | 1006.0 |
| 20260504210043 | 22 | 326 | 8.0 | 19.3 | 0.00 | 0.00 | 0.00 | 30 | 1006.1 |
| 20260504204531 | 22 | 299 | 3.2 | 27.4 | 0.00 | 0.00 | 0.00 | 31 | 1005.9 |
| 20260504203031 | 22 | 297 | 3.2 | 16.1 | 0.00 | 0.00 | 0.00 | 30 | 1005.9 |
| 20260504201529 | 22 | 329 | 6.4 | 22.5 | 0.00 | 0.00 | 0.00 | 29 | 1006.1 |
| 20260504200033 | 22 | 275 | 4.8 | 20.9 | 0.00 | 0.00 | 0.00 | 29 | 1006.0 |
| 20260504194526 | 22 | 300 | 6.4 | 19.3 | 0.00 | 0.00 | 0.00 | 29 | 1006.1 |
| 20260504193023 | 22 | 285 | 1.6 | 22.5 | 0.00 | 0.00 | 0.00 | 29 | 1006.1 |
| 20260504191521 | 21 | 289 | 8.0 | 20.9 | 0.00 | 0.00 | 0.00 | 29 | 1006.2 |
| 20260504190020 | 21 | 344 | 8.0 | 20.9 | 0.00 | 0.00 | 0.00 | 30 | 1006.3 |